Terminal Aerodrome Forecast
Issued by NWS

Home | Current Version | Previous Version | Text Only | Print | Product List | Glossary On
Versions: 1 2 3 4 5 6 7 8 9 10 11 12
000
FTUS42 TJSJ 232300 RRA
TAFNCM
TAF
TNCM 232341Z 2400/2424 12008KT P6SM FEW020
     FM241300 15010KT P6SM SCT022
     FM242300 11006KT P6SM FEW022=

USA.gov is the U.S. government's official web portal to all federal, state and local government web resources and services.